Showing default

RASSVET-3 14, 68373

Orbit data source: Space-Track

RASSVET-3 14, 68373 is a payload satellite owned by Byuro 1440 (CIS) in LEO that was launched on Mon, 23 Mar 2026 UTC via a SOYUZ-2-1B launch vehicle from the Plesetsk Missile And Space Complex (PKMTR). Payload-class satellites include a variety of spacecraft equipped with specific instruments for various scientific and technological missions. These include communications satellites like Starlink; space stations such as the ISS; scientific satellites like the Hubble; Earth observation satellites from companies like Planet Labs, Umbra, and HawkEye 360; GPS; miniature CubeSats for education and research; and military/defense satellites.

Not visible in the next 10 days
Identifier
68373, 2026-061P
Orbit
LEO
Country
Flag of CISCIS
Related business
Manufacturer
Byuro 1440
Mission
Operational spacecraft
Bus & Motor
RASSVET-2, Unknown motor
Mass
~370 kg wet, ~370 kg dry
Launch date (UTC)
2026-03-23 (3 weeks ago)
Launch vehicle
SOYUZ-2-1B
Launch site
Plesetsk Missile And Space Complex (PKMTR)
Object type
Payload
Rocket body
Debris
Shape & HBR
Unknown
Radar Cross Section
RCS unknown

Expand to show TLE details & history
Last TLE update: 8 hours ago

TLE from 8 hours ago
0 RASSVET-3 14
1 68373U 26061P   26102.23821417  .00091894  18533-5  28839-3 0  9990
2 68373  82.2963  86.5861 0022381   1.1280 359.0038 15.90850000  3101
Epoch: 2026-04-12T05:43Z
TLE epoch observation values (Epoch: 2026-04-12T05:43:01.704Z)
Latitude
-0.00005°
Longitude
160.38296°
Altitude
288.132 km
Speed
7.743 km/s
True Right ascension
05h 46m 20s
True Declination
0° 00' 00"
Sunlit
Object was in daylight at epoch
Visualization orbit readout
Latitude
Unknown
Longitude
Unknown
Altitude
Unknown
Speed
Unknown
Apparent Right ascension
Unknown
Apparent Declination
Unknown
Sunlit
N/A
Visualization observer readout
Local Sidereal Time
20:17:12
Azimuth
Unknown
Elevation
Unknown
Doppler factor
Unknown
Orbital elements
Apogee altitude
311.728 km
Perigee altitude
281.849 km
Semi-major axis
6,674.925 km
Eccentricity
0.00224
Inclination
82.2963°
RAAN
86.5861°
Arg. of periapsis
1.128°
True anomaly
358.99933°
Mean anomaly
359.0038°
Eccentric anomaly
359.00157°
Mean motion
3.97991 °/min
Orbital period
90.45 mins
BSTAR
0.00028839
Loading maneuver chart data...
Computing Atmospheric mass density...
Loading historical data...
Loading historical data...
Loading historical data...
Loading historical data...
Loading historical data...
Loading historical data...
Loading historical data...

Documentation

Showing up to 5 results
|